Home > Weather > Temuco > Past weeks

Flag for Chile Weather for the Past 2 Weeks in Temuco, Chile

Now
55 °F

Light rain. Mostly cloudy.


Feels Like: 54 °F
Forecast: 43 / 69 °F
Wind: 7 mph from Northeast

Location: Concepcion Airport

Current Time: May 1, 2016 at 10:34:58 PM

Latest Report: May 1, 2016 at 10:00 PM


Visibility: 2 mi

Pressure: 30.07 "Hg

Humidity: 94%

Dew Point: 54 °F

Location of TemucoLocation

Historic Weather in Temuco — Graph

°F

Temuco Temperature Yesterday

Maximum temperature yesterday: 64 °F (at 2:00 PM)
Minimum temperature yesterday: 45 °F (at 9:00 AM)
Average temperature yesterday: 54 °F

High & Low Weather Summary for the Past Weeks

 TemperatureHumidityPressure
High73 °F (Apr 26, 5:00 PM)100% (Apr 18, 6:00 AM)30.27 "Hg (Apr 18, 6:00 AM)
Low39 °F (Apr 19, 4:00 AM)25% (Apr 26, 5:00 PM)29.77 "Hg (Apr 22, 9:00 PM)
Average54 °F80%30.02 "Hg
* Reported Apr 16 9:00 PM — May 1 9:00 PM, Temuco, Weather by CustomWeather, © 2016

Note: Actual official high and low records may vary slightly from our data, if they occured in-between our weather recording intervals... More about our weather records

Advertising

Temuco Weather History for the Previous 24 Hours

Scroll right to see more
 ConditionsComfort  
Time TempWeatherWind HumidityBarometerVisibility
9:00 PM
Sun, May 1
57 °FLight rain. Mostly cloudy.6 mph88%30.04 "Hg4 mi
8:00 PM55 °FSprinkles. Mostly cloudy.1 mph94%30.04 "Hg5 mi
7:00 PM57 °FSprinkles. Mostly cloudy.10 mph88%30.04 "Hg5 mi
6:00 PM57 °FMore clouds than sun.13 mph94%30.01 "HgN/A
5:00 PM59 °FScattered clouds.15 mph82%29.98 "HgN/A
4:00 PM57 °FMostly cloudy.7 mph88%29.98 "HgN/A
3:00 PM57 °FLight rain. More clouds than sun.12 mph88%29.98 "Hg5 mi
2:00 PM57 °FSprinkles. More clouds than sun.10 mph88%29.98 "Hg5 mi
1:00 PM57 °FSprinkles. Cloudy.15 mph82%29.95 "Hg5 mi
12:00 PM57 °FOvercast.2 mph88%29.98 "HgN/A
11:00 AM57 °FMore clouds than sun.5 mph88%29.98 "HgN/A
10:00 AM55 °FMore clouds than sun.6 mph100%29.98 "HgN/A
9:00 AM54 °FFog.3 mph100%29.95 "Hg5 mi
8:00 AM52 °FFog.3 mph94%29.92 "Hg4 mi
7:00 AM50 °FFog.1 mph100%29.89 "Hg3 mi
6:00 AM50 °FFog.No wind100%29.89 "Hg2 mi
5:00 AM50 °FFog.1 mph100%29.89 "Hg1 mi
4:00 AM50 °FFog.1 mph94%29.86 "Hg2 mi
3:00 AM50 °FFog.No wind100%29.86 "Hg2 mi
2:00 AM52 °FFog.No wind94%29.86 "Hg2 mi
1:00 AM52 °FFog.2 mph94%29.86 "Hg2 mi
12:00 AM54 °FFog.3 mph94%29.86 "Hg4 mi
11:00 PM
Sat, Apr 30
55 °FClear.No wind94%29.86 "Hg5 mi
10:00 PM55 °FClear.3 mph94%29.86 "Hg5 mi
Weather by CustomWeather, © 2016

See weather overviewHow to use our weather pages